Regional Weather Roundup
Issued by NWS

Home | Current Version | Previous Version | Graphics & Text | Print | Product List | Glossary On
Versions: 1 2 3 4 5 6 7 8 9 10 11 12 13 14 15 16 17 18 19 20 21 22 23 24 25 26 27 28 29 30 31 32 33 34 35 36 37 38 39 40 41 42 43 44 45 46 47 48 49 50
306
ASUS45 KTFX 290610
RWRMT
MONTANA REGIONAL WEATHER ROUNDUP
NATIONAL WEATHER SERVICE GREAT FALLS MT
1200 AM MDT FRI JUL 29 2016

NOTE: "FAIR" INDICATES FEW OR NO CLOUDS BELOW 12000 FEET WITH NO
SIGNIFICANT WEATHER AND/OR OBSTRUCTIONS TO VISIBILITY.

MTZ001>007-043-290700-
WEST OF THE DIVIDE

CITY           SKY/WX    TMP DP  RH WIND       PRES   REMARKS
KALISPELL      CLEAR     63  57  81 N8        30.04S
MISSOULA       CLEAR     69  48  47 CALM      30.07R
BUTTE          CLEAR     60  38  43 SE7       30.21R
MULLAN PASS    CLEAR     66  38  35 N5        30.25F
ANACONDA         N/A     63  41  45 SW5       30.18R
DEER LODGE       N/A     66  43  42 CALM      30.18R
EUREKA           N/A     66  52  59 CALM      30.03S
HAMILTON         N/A     63  52  67 CALM      30.09R
LIBBY            N/A     66  48  52 CALM      30.04R
RONAN            N/A     61  53  74 CALM      30.10S
$$

MTZ008-052>055-290700-
SOUTHWEST MONTANA

CITY           SKY/WX    TMP DP  RH WIND       PRES   REMARKS
BOZEMAN        CLEAR     67  51  56 SW6       30.13R
DILLON         CLEAR     63  44  50 SE7       30.16R
W YELLOWSTONE  CLEAR     50  36  57 S3        30.28R
ENNIS          CLEAR     63  39  42 S5        30.22R
THREE FORKS      N/A     65  33  30 CALM      30.11R
TWIN BRIDGES     N/A     69  40  34 N5        30.11R
$$

MTZ009-010-012-014-046-048-049-054-290700-
EAST SLOPES AND CENTRAL MONTANA

CITY           SKY/WX    TMP DP  RH WIND       PRES   REMARKS
CUT BANK       MOCLDY    60  57  89 NW8       30.14R
GREAT FALLS    CLEAR     70  49  47 E12       30.08S
MALMSTROM AFB  PTCLDY    66  51  57 SE12      30.08S
HELENA         PTCLDY    71  47  42 SW3       30.10R
CHOTEAU          N/A     61  54  77 N7        30.15S
$$

MTZ011-013-016-021-045-047-050-051-290700-
NORTH CENTRAL MONTANA

CITY           SKY/WX    TMP DP  RH WIND       PRES   REMARKS
HAVRE          MOCLDY    67  56  67 E9        30.06S
N BAR RANCH      N/A     59  50  72 SW6       30.21S
CHINOOK          N/A     66  57  72 E7        30.07F
$$

MTZ017>020-022>027-061-062-290700-
NORTHEAST MONTANA

CITY           SKY/WX    TMP DP  RH WIND       PRES   REMARKS
GLASGOW        CLEAR     62  55  77 E9        30.10S
JORDAN           N/A     63  57  81 E3        30.11F
SIDNEY         CLEAR     61  57  87 SW5       30.13S
WOLF POINT     CLEAR     60  55  83 NE5       30.11S
PLENTYWOOD       N/A     61  52  72 E6        30.13S
SCOBEY           N/A     56  41  57 CALM      30.11S
$$

MTZ028>42-056>058-290700-
SOUTHCENTRAL AND SOUTHEAST MONTANA

CITY           SKY/WX    TMP DP  RH WIND       PRES   REMARKS
BAKER          CLEAR     60  59  96 SE8       30.16S
BILLINGS       CLEAR     69  50  50 CALM      30.14S
LIVINGSTON     CLEAR     65  51  60 E10       30.16R
MILES CITY     CLEAR     68  57  68 E6        30.11S
EKALAKA          N/A     59  56  89 SE6       30.13S
FORSYTH          N/A     64  55  72 CALM      30.11R
LAUREL           N/A     64  51  62 CALM      30.12S
ROUNDUP          N/A     65  48  53 CALM      30.05S
$$

REGIONAL REPORTS...DAKOTAS

CITY           SKY/WX    TMP DP  RH WIND       PRES   REMARKS
WILLISTON      PTCLDY    56  52  86 CALM      30.13S
MINOT          CLOUDY    62  53  72 CALM      30.12S
DICKINSON      CLOUDY    59  57  93 CALM      30.14S
BEACH            N/A     55  55 100 SE5       30.18S
CROSBY           N/A     54  54 100 SW7       30.15S
WATFORD CITY     N/A    N/A N/A N/A MISG        N/A
BISMARCK       MOCLDY    66  56  70 NW3       30.12S
GRAND FORKS    CLEAR     57  53  86 NW3       30.10S
FARGO          CLOUDY    64  58  80 N5        30.09S
BUFFALO SD       N/A     60  60 100 E7        30.11R
RAPID CITY     PTCLDY    56  56 100 CALM      30.17S
$$

REGIONAL REPORTS...WYOMING/IDAHO/WASHINGTON

CITY           SKY/WX    TMP DP  RH WIND       PRES   REMARKS
GILLETTE       CLEAR     56  54  93 SW3       30.19S
SHERIDAN       CLEAR     61  52  72 SW5       30.16F
BUFFALO WY     CLOUDY    60  52  74 SW7       30.24F
CODY           CLEAR     63  48  59 CALM      30.22S
YELLOWSTONE LA   N/A     48  38  68 NW3       30.38R
IDAHO FALLS    CLEAR     68  43  40 CALM      30.06S
SALMON         CLEAR     70  39  32 SE5       30.06R
BOISE          CLEAR     80  44  27 CALM      29.95R
SPOKANE        CLEAR     78  47  33 SW3       30.00S
$$

REGIONAL REPORTS...ALBERTA

CITY           SKY/WX    TMP DP  RH WIND       PRES   REMARKS
EDMONTON       PTCLDY    57  55  94 SE7       30.05F
CALGARY        MOCLDY    63  54  72 SW7       30.14F
LETHBRIDGE     CLOUDY    63  61  94 VRB2      30.14R
MEDICINE HAT   LGT RAIN  64  61  88 E6        30.06S
WATERTON GATE    N/A     61  55  82 E5          N/A
CARDSTON         N/A     61  54  77 W2          N/A
MILK RIVER       N/A     61  59  94 NW21G26     N/A
ONEFOUR          N/A     64  55  72 S6          N/A
$$

REGIONAL REPORTS...SASKATCHEWAN

CITY           SKY/WX    TMP DP  RH WIND       PRES   REMARKS
SWIFT CURRENT  CLEAR     59  54  82 S9        30.08F
REGINA         CLEAR     59  52  77 SE10      30.11R
SASKATOON      CLOUDY    66  59  77 N6        30.06S
CYPRESS HILLS    N/A     61  50  67 S7          N/A
VAL MARIE        N/A     55  52  88 W2          N/A
ROCKGLEN         N/A     59  50  72 S8          N/A
$$




USA.gov is the U.S. government's official web portal to all federal, state and local government web resources and services.